Regional Weather Roundup
Issued by NWS

Home | Current Version | Previous Version | Text Only | Print | Product List | Glossary On
Versions: 1 2 3 4 5 6 7 8 9 10 11 12 13 14 15 16 17 18 19 20 21 22 23 24 25 26 27 28 29 30 31 32 33 34 35 36 37 38 39 40 41 42 43 44 45 46 47 48 49 50
000
ASUS42 KTBW 240617
RWRFL
FLORIDA REGIONAL WEATHER ROUNDUP
NATIONAL WEATHER SERVICE TAMPA BAY RUSKIN FL
200 AM EDT MON JUL 24 2017

NOTE: "FAIR" INDICATES FEW OR NO CLOUDS BELOW 12,000 FEET WITH NO
SIGNIFICANT WEATHER AND/OR OBSTRUCTIONS TO VISIBILITY.

FLZ001>010-012>015-112-114-115-240700-
PANHANDLE FLORIDA

CITY           SKY/WX    TMP DP  RH WIND       PRES   REMARKS
PENSACOLA      CLOUDY    82  73  74 W6        29.95S
PENSACOLA NAS  CLOUDY    79  74  84 W6        29.95S
MILTON NAS     PTCLDY    75  73  93 W3        29.96
CRESTVIEW      CLEAR     74  71  91 SE3       29.97S
DUKE FIELD     FAIR      78  74  90 S3        29.96S
VALPARAISO     LGT RAIN  77  53  41 W3        29.96S
PANAMA CITY    FAIR      78  73  84 S5        29.96S
TYNDALL AFB    MOCLDY    82  73  74 SW12      29.97S
APALACHICOLA   CLEAR     82  77  84 SW9       29.98S

STATION/POSITION SKY/WX   TEMP    WIND        PRES    WAVE   SWELL
                          AIR SEA DIR/SP/G            HT/PER HT/PER
                          (F)     (DEG/KT/KT) (MB)    (FT/S) (FT/S)
30.1N   87.6W              82 86  310/ 19/ 23 1014.1R   3/ 4
29.2N   88.2W              83 85  230/ 10/ 12 1015.9R   2/ 3
28.8N   86.0W              83 84  230/ 14/ 16 1015.5R   2/ 5
PANAMA CITY BEAC                  220/ 17/ 19 1015.0F
TOWER C          NOT AVBL
28.5N   84.5W              83 86  200/  6/  8 1016.0F   2/ 4   2/ 4

$$
FLZ011-016>038-118-127-128-134-139-239-240700-
NORTH FLORIDA

CITY           SKY/WX    TMP DP  RH WIND       PRES   REMARKS
MARIANNA       PTCLDY    77  75  93 S7        29.96S
TALLAHASSEE    CLEAR     76  75  97 CALM      29.98S
PERRY          HVY RAIN  77  75  93 S5        30.01R
LIVE OAK       CLOUDY    77  77 100 CALM      30.01S
CROSS CITY     PTCLDY    75  74  97 S5        30.05F
LAKE CITY      FAIR      73  73 100 S3        30.01F
GAINESVILLE    PTCLDY    74  72  93 S3        30.04F
WILLISTON      CLEAR     77  77 100 CALM      30.02F
PALATKA        MOCLDY    73  73 100 CALM      30.03S
MAYPORT NAS    CLOUDY    76  74  93 S9        29.99F
JACKSONVILLE   CLOUDY    76  75  97 S7        29.98F
JAX NAS        CLOUDY    78  73  84 VRB7      30.00F
JAX CECIL      MOCLDY    75  75 100 S5        30.00F
FERNANDINA BEA FAIR      81  75  83 SW7       29.98F
ST AUGUSTINE   PTCLDY    74  72  93 SW5       30.02F
PALM COAST     FAIR      73  73 100 CALM      30.02F

STATION/POSITION SKY/WX   TEMP    WIND        PRES    WAVE   SWELL
                          AIR SEA DIR/SP/G            HT/PER HT/PER
                          (F)     (DEG/KT/KT) (MB)    (FT/S) (FT/S)
SHELL POINT      NOT AVBL
KEATON BEACH               83     230/ 14/ 16 1015.1F
CEDAR KEY                  82     170/  9/ 11 1016.6F
FERNANDINA                    82  190/  4/  7 1016.1F
30.7N   81.3W                 79                N/A     2/11   2/11
MAYPORT                       78  220/  6/  9 1016.1F
31.4N   80.9W              80 81  210/ 16/ 19 1014.4F   3/ 4   2/10
ST AUGUSTINE               75 75  210/  7/  9 1016.5F

$$
FLZ040-043>046-052-053-057-058-063-144-240700-
INTERIOR CENTRAL FLORIDA

CITY           SKY/WX    TMP DP  RH WIND       PRES   REMARKS
OCALA          CLOUDY    75  74  96 S5        30.03F
THE VILLAGES     N/A     77  77 100 CALM      29.93F
LEESBURG       CLOUDY    80  76  87 S6        30.04F
SANFORD        PTCLDY    78  74  87 S5        30.03F
ORLANDO INTL   CLOUDY    77  77 100 CALM      30.04F
KISSIMMEE      CLOUDY    79  76  90 CALM      30.05F
WINTER HAVEN   CLOUDY    78  74  87 S3        30.05F
LAKELAND         N/A     75  75 100 SE3       30.04F
BARTOW         FAIR      75  75 100 CALM      30.04F
SEBRING        FAIR      77  72  83 CALM      30.04S
OKEECHOBEE     CLEAR     73  73 100 CALM      30.04F

$$
FLZ041-047-054-059-064-141-147-240700-
EAST CENTRAL FLORIDA

CITY           SKY/WX    TMP DP  RH WIND       PRES   REMARKS
DAYTONA BEACH  PTCLDY    76  75  97 CALM      30.03F
DELAND         CLOUDY    77  75  94 S3        30.03S
CAPE CANAVERAL CLOUDY    78  77  99 SW5       30.02F
PATRICK AFB    CLEAR     80  77  90 W7        30.03F
MELBOURNE      CLEAR     78  76  93 W3        30.03F
VERO BEACH     CLEAR     77  75  93 CALM      30.04S
FT PIERCE      CLEAR     76  75  97 NW3       30.03F
STUART         CLEAR     79  77  94 CALM      30.04F

STATION/POSITION SKY/WX   TEMP    WIND        PRES    WAVE   SWELL
                          AIR SEA DIR/SP/G            HT/PER HT/PER
                          (F)     (DEG/KT/KT) (MB)    (FT/S) (FT/S)
28.5N   80.2W              83 84  220/ 12/ 14 1017.9F   2/ 9   2/ 9
28.9N   78.5W              85 85  180/ 16/ 19 1017.0R   4/ 9   3/ 9
TRIDENT PIER                  81  210/  7/ 10 1018.5F
28.4N   80.5W                 81                N/A     2/11
27.5N   80.2W                 81                N/A     3/ 9

$$
FLZ050-056-061-142-242-148-248-149-249-151-251-155-255-
160-260-240700-
WEST CENTRAL FLORIDA

CITY           SKY/WX    TMP DP  RH WIND       PRES   REMARKS
CRYSTAL RIVER  FAIR      73  73 100 CALM      30.02F
INVERNESS      FAIR      73  73 100 CALM      30.03S
BROOKSVILLE    CLOUDY    75  74  96 S6        30.04F
CLEARWATER AIR FAIR      77  77 100 CALM      30.02F
ST PETE CLEARW CLEAR     80  77  90 SE5       30.02F
TAMPA INTL     PTCLDY    79  76  90 SE3       30.03F
TAMPA EXEC     PTCLDY    77  73  88 CALM      30.04F
PLANT CITY     CLOUDY    77  77 100 CALM      30.05F
MACDILL AFB    CLEAR     80  80 100 SE6       30.01F
PETER O KNIGHT MOCLDY    81  81 100 SE5       30.02F
ST PETERSBURG  CLEAR     83  77  82 S9        30.00F
SARASOTA       PTCLDY    78  75  90 E5        30.01F
VENICE         FAIR      79  77  94 CALM      30.03F

STATION/POSITION SKY/WX   TEMP    WIND        PRES    WAVE   SWELL
                          AIR SEA DIR/SP/G            HT/PER HT/PER
                          (F)     (DEG/KT/KT) (MB)    (FT/S) (FT/S)
27.3N   84.2W                 87                N/A     2/ 4
CLEARWATER BEACH              86  120/  3/  4 1016.7F
MIDDLE TAMPA BAY                  160/  8/  9 1017.0F
VENICE                     79 87   90/  5/  6 1016.7F

$$
FLZ066-069-070-075>078-162-262-165-265-240700-
SOUTHWEST FLORIDA AND KEYS

CITY           SKY/WX    TMP DP  RH WIND       PRES   REMARKS
PUNTA GORDA    CLEAR     75  73  93 CALM      30.04F
FT MYERS       CLEAR     77  77 100 CALM      30.01F
SOUTHWEST INTL CLEAR     77  75  93 CALM      30.02F
NAPLES         CLEAR     80  76  87 CALM      30.01F
MARCO ISLAND   CLOUDY    79  73  83 N3        30.02F
IMMOKALEE      FAIR      75  75 100 CALM      30.03F
MARATHON       PTCLDY    85  77  77 SE7       30.01F HX  95
KEY WEST NAS   PTCLDY    83  78  85 E7        30.00F
KEY WEST INTL  CLEAR     85  76  74 E7        30.00F

STATION/POSITION SKY/WX   TEMP    WIND        PRES    WAVE   SWELL
                          AIR SEA DIR/SP/G            HT/PER HT/PER
                          (F)     (DEG/KT/KT) (MB)    (FT/S) (FT/S)
NAPLES                        88   80/  3/  4 1016.4F
DRY TORTUGAS               85     120/  9/ 10 1016.0F
SAND KEY                   84     100/  6/ 12 1016.4F
MOLASSES REEF              85 86  110/  8/ 11 1017.0S

$$
FLZ067-068-071>074-168-172>174-240700-
SOUTHEAST FLORIDA

CITY           SKY/WX    TMP DP  RH WIND       PRES   REMARKS
W PALM BEACH   PTCLDY    79  72  79 W3        30.03F
FT LAUDER-EXEC PTCLDY    82  74  76 CALM      30.02F
FT LAUDERDALE  PTCLDY    84  76  76 S5        30.01F
POMPANO BEACH  PTCLDY    84  76  76 S3        30.02F
PEMBROKE PINES CLEAR     83  75  77 CALM      30.04S
OPA LOCKA      PTCLDY   N/A N/A N/A CALM      30.03S
MIAMI          PTCLDY    83  75  77 E3        30.03S
WEST KENDALL   PTCLDY    79  74  84 CALM      30.02F
HOMESTEAD      PTCLDY    81  79  94 CALM      30.01F

STATION/POSITION SKY/WX   TEMP    WIND        PRES    WAVE   SWELL
                          AIR SEA DIR/SP/G            HT/PER HT/PER
                          (F)     (DEG/KT/KT) (MB)    (FT/S) (FT/S)
PORT EVERGLADES            85     140/  6/  8 1016.5F
VIRGINIA KEY                  88  100/  4/  5 1016.1F
LAKE WORTH                        160/ 12/ 13   N/A
FOWEY ROCKS                84 85  130/  9/ 10 1017.3F
SETTLEMENT POINT           83     140/  7/  9 1016.9F

$$




USA.gov is the U.S. government's official web portal to all federal, state and local government web resources and services.